Date,TemperatureHighF,TemperatureAvgF,TemperatureLowF,DewpointHighF,DewpointAvgF,DewpointLowF,HumidityHigh,HumidityAvg,HumidityLow,PressureMaxIn,PressureMinIn,WindSpeedMaxMPH,WindSpeedAvgMPH,GustSpeedMaxMPH,PrecipitationSumIn
2013-1-20,45,45,45,36,36,36,69,69,69,29.68,29.68,1,1,1,0.00
2013-1-21,45,45,45,36,36,36,69,69,69,29.68,29.68,1,1,1,0.00
2013-1-27,55,50,38,34,32,29,70,50,42,30.00,29.90,6,1,6,0.00
2013-1-28,58,49,43,46,38,29,77,67,52,29.93,29.77,3,0,3,0.00
2013-1-29,74,59,45,62,51,39,85,75,64,29.77,29.54,7,1,7,0.00
2013-1-30,76,68,54,65,60,48,89,78,62,29.54,29.03,14,3,14,0.98
2013-1-31,54,48,41,48,32,26,82,56,37,29.65,29.22,10,2,10,0.02
2013-2-1,51,45,35,34,23,15,62,42,25,29.84,29.58,8,1,8,0.00
2013-2-2,55,42,30,34,21,15,61,44,28,29.85,29.59,5,0,5,0.00
2013-2-3,60,49,40,41,33,28,73,55,33,29.59,29.40,12,1,12,0.00
2013-2-4,52,45,38,36,30,26,66,55,45,29.63,29.51,4,0,4,0.00
2013-2-5,66,52,38,48,40,30,77,64,52,29.52,29.43,6,1,6,0.00
2013-2-6,69,57,46,49,41,34,84,60,32,29.64,29.49,4,0,4,0.00
2013-2-7,52,49,45,46,42,35,91,79,53,29.63,29.33,8,0,8,2.44
2013-2-8,60,50,44,52,46,41,91,84,73,29.59,29.35,8,1,8,0.00
2013-2-9,61,48,36,43,37,32,86,67,44,29.78,29.57,4,0,4,0.00
2013-2-10,67,54,41,53,42,32,85,67,54,29.86,29.58,10,1,10,0.30
2013-2-11,65,59,56,62,56,52,92,89,85,29.67,29.52,6,1,6,1.22
2013-2-12,62,55,50,53,50,46,92,85,64,29.60,29.32,4,0,4,0.84
2013-2-13,57,51,47,54,48,42,93,89,83,29.37,29.19,8,1,8,0.07
2013-2-14,53,47,39,44,41,36,87,80,70,29.56,29.37,4,0,4,0.00
2013-2-15,62,48,35,46,39,31,89,72,46,29.58,29.42,6,0,6,0.00
2013-2-16,48,43,34,41,33,18,88,69,45,29.56,29.32,8,1,8,0.11
2013-2-17,48,38,29,23,19,17,61,48,33,29.76,29.55,8,1,8,0.00
2013-2-18,57,43,30,31,26,19,70,51,36,29.86,29.69,8,1,8,0.00
2013-2-19,54,46,40,49,37,26,89,74,50,29.69,29.45,5,0,5,0.29
2013-2-20,59,47,35,33,28,25,67,50,33,29.63,29.51,5,0,5,0.00
2013-2-21,63,50,36,36,30,25,70,48,30,29.66,29.50,5,0,5,0.00
2013-2-22,54,45,41,41,39,36,90,80,52,29.64,29.55,4,0,4,0.88
2013-2-23,47,44,40,45,41,38,92,91,89,29.55,29.30,4,0,4,0.73
2013-2-24,67,54,45,53,45,40,93,75,44,29.47,29.35,4,0,4,0.00
2013-2-25,50,47,42,41,38,36,83,72,62,29.55,29.37,8,0,8,0.01
2013-2-26,52,45,40,50,42,36,92,90,83,29.42,29.05,4,0,4,1.16
2013-2-27,61,50,41,46,42,37,91,73,53,29.35,29.22,9,1,9,0.00
2013-2-28,56,49,41,41,35,28,72,60,47,29.41,29.26,9,1,9,0.00
2013-3-1,55,44,35,36,30,26,72,59,46,29.44,29.32,6,1,6,0.00
2013-3-2,47,41,36,39,31,26,76,69,62,29.43,29.35,6,1,6,0.01
2013-3-3,51,40,34,32,26,21,71,58,41,29.51,29.39,8,1,8,0.00
2013-3-4,58,44,30,32,26,20,67,51,31,29.66,29.50,5,0,5,0.00
2013-3-5,67,54,43,54,42,31,83,65,53,29.55,29.14,10,2,12,0.19
2013-3-6,51,44,38,37,28,23,65,54,43,29.60,29.26,11,2,11,0.00
2013-3-7,59,45,33,36,31,25,77,59,41,29.72,29.60,7,0,7,0.00
2013-3-8,62,48,36,36,31,27,69,53,33,29.76,29.63,4,0,4,0.00
2013-3-9,65,51,38,36,32,27,65,49,32,29.81,29.67,5,0,5,0.00
2013-3-10,71,59,46,47,42,35,70,54,39,29.74,29.59,7,1,8,0.40
2013-3-11,71,61,51,54,48,40,73,63,52,29.63,29.29,9,1,9,0.00
2013-3-12,68,61,54,56,49,36,88,68,44,29.48,29.23,7,1,7,0.25
2013-3-13,63,54,45,37,32,24,63,45,27,29.65,29.48,10,1,10,0.00
2013-3-14,57,46,36,28,25,21,58,43,31,29.79,29.63,5,0,5,0.00
2013-3-15,72,56,40,42,33,23,58,43,33,29.69,29.45,10,1,10,0.00
2013-3-16,78,67,56,47,42,39,57,42,29,29.48,29.32,13,2,13,0.00
2013-3-17,76,67,59,55,50,43,66,53,42,29.49,29.39,8,2,8,0.00
2013-3-18,68,61,51,58,53,47,87,74,64,29.51,29.27,9,1,9,0.60
2013-3-19,71,58,50,54,45,34,89,66,28,29.50,29.31,6,1,6,0.02
2013-3-20,62,54,46,37,31,26,57,42,29,29.58,29.32,5,0,5,0.00
2013-3-21,55,48,41,28,22,16,53,37,23,29.42,29.29,12,1,12,0.00
2013-3-22,52,45,38,32,24,19,53,44,38,29.54,29.41,5,0,5,0.00
2013-3-23,54,49,46,49,41,32,87,76,54,29.52,29.32,6,0,6,0.40
2013-3-24,50,48,46,47,46,44,91,90,86,29.34,29.02,7,1,8,1.69
2013-3-25,52,46,40,44,33,24,91,62,42,29.47,29.08,12,2,12,0.02
2013-3-26,50,42,35,31,27,24,67,56,46,29.68,29.44,6,1,8,0.00
2013-3-27,57,45,33,33,28,24,72,54,36,29.76,29.64,6,1,6,0.00
2013-3-28,61,49,36,33,29,25,65,47,30,29.79,29.65,6,0,6,0.00
2013-3-29,68,54,40,36,32,26,62,45,29,29.80,29.64,6,0,6,0.00
2013-3-30,74,62,52,48,43,35,67,50,37,29.68,29.50,5,1,5,0.00
2013-3-31,78,67,61,60,54,47,77,64,45,29.50,29.32,11,1,11,0.05
2013-4-1,75,66,60,62,54,44,89,70,38,29.44,29.32,6,1,6,0.35
2013-4-2,74,63,52,45,44,41,69,51,34,29.60,29.44,5,0,6,0.00
2013-4-3,66,58,51,43,38,35,70,48,34,29.68,29.53,5,0,5,0.01
2013-4-4,53,46,42,43,42,39,90,85,68,29.64,29.40,10,0,10,0.79
2013-4-5,60,49,39,50,43,36,90,81,68,29.49,29.36,4,0,4,0.00
2013-4-6,73,58,42,51,43,38,88,61,33,29.65,29.49,7,1,7,0.00
2013-4-7,77,64,50,57,49,41,80,59,46,29.69,29.54,7,1,7,0.00
2013-4-8,81,69,58,60,54,50,79,60,42,29.63,29.53,9,1,9,0.00
2013-4-9,83,72,60,64,57,53,79,61,45,29.67,29.57,8,1,8,0.00
2013-4-10,85,73,63,64,59,55,79,63,44,29.61,29.44,8,1,8,0.00
2013-4-11,81,74,66,68,65,58,83,73,61,29.45,29.22,8,1,8,0.00
2013-4-12,81,73,65,68,61,46,87,69,38,29.35,29.16,13,2,13,0.08
2013-4-13,78,66,54,49,45,41,65,47,29,29.47,29.35,6,0,6,0.00
2013-4-14,68,62,56,59,52,46,89,71,52,29.54,29.27,10,1,10,0.25
2013-4-15,73,66,60,64,60,57,90,84,72,29.61,29.38,5,0,5,0.01
2013-4-16,81,71,61,66,61,57,88,73,54,29.71,29.61,6,0,6,0.00
2013-4-17,85,74,63,66,61,57,84,66,49,29.69,29.56,5,1,5,0.00
2013-4-18,83,74,64,67,62,57,81,66,53,29.58,29.43,9,1,9,0.00
2013-4-19,82,70,54,69,63,50,88,80,60,29.45,29.28,14,2,14,0.71
2013-4-20,67,57,48,51,46,43,88,69,45,29.68,29.42,5,0,5,0.01
2013-4-21,71,59,46,50,44,40,82,60,39,29.79,29.68,10,1,10,0.00
2013-4-22,69,60,52,44,42,38,66,52,39,29.77,29.61,6,0,6,0.00
2013-4-23,74,61,47,54,46,38,72,58,45,29.67,29.54,6,0,6,0.00
2013-4-24,80,68,57,60,55,50,81,64,48,29.62,29.49,9,1,9,0.00
2013-4-25,79,71,64,61,55,44,77,59,41,29.69,29.53,5,0,5,0.00
2013-4-26,76,66,53,57,48,42,68,54,41,29.83,29.69,7,1,7,0.00
2013-4-27,70,63,55,60,53,48,85,72,55,29.81,29.64,6,0,6,0.08
2013-4-28,72,63,57,65,58,51,91,83,73,29.65,29.44,8,1,8,1.92
2013-4-29,69,64,61,66,62,58,94,92,88,29.51,29.40,3,0,3,0.26
2013-4-30,76,66,58,68,62,56,93,85,72,29.56,29.40,6,0,6,0.00
2013-5-1,69,64,60,61,58,56,89,83,74,29.66,29.55,5,0,5,0.00
2013-5-2,69,65,62,63,59,56,88,83,77,29.64,29.56,8,0,8,0.00
2013-5-3,66,63,59,61,57,55,87,83,78,29.58,29.45,9,1,9,0.00
2013-5-4,62,58,54,56,53,48,92,84,72,29.46,29.30,11,1,11,0.49
2013-5-5,67,60,58,65,57,55,94,91,79,29.31,29.20,11,1,11,0.94
2013-5-6,71,61,53,57,52,48,88,74,54,29.38,29.25,8,1,8,0.00
2013-5-7,72,62,54,58,52,48,87,70,54,29.43,29.31,8,1,8,0.00
2013-5-8,81,68,56,61,55,50,81,63,46,29.48,29.37,8,1,8,0.00
2013-5-9,85,74,62,64,58,54,79,60,44,29.55,29.45,8,1,8,0.00
2013-5-10,87,76,65,65,60,57,81,60,42,29.54,29.40,10,1,10,0.00
2013-5-11,83,75,67,67,63,59,75,65,55,29.46,29.31,8,1,8,0.00
2013-5-12,80,72,63,64,54,40,79,57,29,29.50,29.32,8,1,8,0.00
2013-5-13,74,64,53,46,41,38,63,45,32,29.63,29.49,7,0,7,0.00
2013-5-14,77,66,51,50,44,38,67,46,30,29.72,29.58,6,1,6,0.00
2013-5-15,90,77,65,63,55,46,58,48,38,29.60,29.44,8,2,8,0.00
2013-5-16,84,77,71,65,60,56,65,55,46,29.53,29.43,6,1,6,0.00
2013-5-17,87,76,66,66,61,57,80,62,47,29.56,29.47,5,1,5,0.00
2013-5-18,79,74,69,67,64,60,79,71,64,29.58,29.49,6,1,6,0.00
2013-5-19,79,73,70,69,66,64,86,79,71,29.57,29.47,5,1,5,0.01
2013-5-20,81,75,70,71,68,65,86,79,69,29.56,29.46,5,0,5,0.00
2013-5-21,89,76,70,74,67,63,88,75,52,29.51,29.40,9,1,9,0.00
2013-5-22,85,76,68,73,66,62,86,73,59,29.47,29.33,8,1,8,0.00
2013-5-23,84,76,69,72,66,62,88,73,53,29.42,29.31,8,1,8,0.14
2013-5-24,84,74,66,62,55,43,72,53,30,29.62,29.36,6,0,6,0.00
2013-5-25,81,71,56,50,46,42,65,43,32,29.76,29.62,8,1,8,0.00
2013-5-26,84,71,60,60,53,48,73,54,34,29.71,29.60,6,0,6,0.00
2013-5-27,86,81,75,60,59,57,58,47,40,29.63,29.57,6,1,6,0.00
2013-5-28,88,80,68,67,62,58,77,56,43,29.67,29.58,10,1,10,0.00
2013-5-29,89,78,66,67,62,59,80,60,43,29.69,29.58,8,1,8,0.00
2013-5-30,89,78,68,70,64,60,80,63,46,29.70,29.57,9,1,9,0.00
2013-5-31,90,80,72,72,67,64,85,66,49,29.67,29.53,8,1,8,0.00
2013-6-1,90,80,71,72,67,63,82,66,48,29.59,29.46,9,1,9,0.00
2013-6-2,90,79,73,73,68,65,85,70,52,29.53,29.32,7,1,7,2.54
2013-6-3,79,73,72,74,70,67,91,89,84,29.40,29.32,9,0,9,1.41